Regional Weather Roundup
Issued by NWS

Home | Current Version | Previous Version | Graphics & Text | Print | Product List | Glossary On
Versions: 1 2 3 4 5 6 7 8 9 10 11 12 13 14 15 16 17 18 19 20 21 22 23 24 25 26 27 28 29 30 31 32 33 34 35 36 37 38 39 40 41 42 43 44 45 46 47 48 49 50
353
ASUS43 KLSX 061507
RWRMO

WEATHER SUMMARY FOR MISSOURI
NATIONAL WEATHER SERVICE SPRINGFIELD MO
1000 AM CDT FRI MAY 06 2016

NOTE: "FAIR" INDICATES FEW OR NO CLOUDS BELOW 12,000 FEET WITH NO
       SIGNIFICANT WEATHER AND/OR OBSTRUCTIONS TO VISIBILITY.
       CURRENT SKY AND/OR WEATHER CONDITIONS ARE NOT AVAILABLE FOR
       CHILLICOTHE AND FARMINGTON.

MOZ001>031-035>038-043-044-053-054-061600-
...NORTHERN AND WESTERN MISSOURI...

CITY           SKY/WX    TMP DP  RH WIND       PRES   REMARKS
KANSAS CTY INT MOSUNNY   67  46  47 SW12      30.08S
KANSAS C DTWN  SUNNY     70  45  40 W6        30.07F
LEE`S SUMMIT   SUNNY     68  41  37 SW13      30.09S
ST JOSEPH      SUNNY     67  47  48 SW12      30.06F
CHILLICOTHE      N/A     69  46  43 VRB6      30.07F
KIRKSVILLE     SUNNY     68  41  37 W9        30.07S

$$
MOZ066>068-077>081-088>096-101>105-061600-
...SOUTHWEST MISSOURI...

CITY           SKY/WX    TMP DP  RH WIND       PRES   REMARKS
SPRINGFIELD    SUNNY     65  37  35 SW5       30.11R
JOPLIN         SUNNY     68  42  38 SW7       30.13R
BRANSON        SUNNY     64  39  39 CALM      30.13F

$$
MOZ032>034-039>042-045>050-055>058-069>072-061600-
...CENTRAL MISSOURI...

CITY           SKY/WX    TMP DP  RH WIND       PRES   REMARKS
COLUMBIA       SUNNY     66  41  40 W7        30.10S
JEFFERSON CITY SUNNY     64  42  44 SW7       30.10R
ROLLA          SUNNY     61  44  53 SW7       30.09F
SEDALIA        SUNNY     67  42  40 SW12      30.10S
WHITEMAN AFB   SUNNY     67  44  43 SW8       30.08S
WARRENSBURG    SUNNY     66  43  42 S7        30.09S
OSAGE BEACH    SUNNY     63  39  42 W6        30.12R

$$
MOZ051-052-059>065-061600-
...EAST CENTRAL MISSOURI...

CITY           SKY/WX    TMP DP  RH WIND       PRES   REMARKS
ST LOUIS INTL  SUNNY     66  44  45 W8        30.10R
SPIRIT OF STL  SUNNY     63  47  55 W7        30.09R
ST CHARLES     SUNNY     64  44  48 W8        30.08S

$$
MOZ072>076-082>087-097>100-106>115-061600-
...SOUTH CENTRAL AND SOUTHEAST MISSOURI...

CITY           SKY/WX    TMP DP  RH WIND       PRES   REMARKS
CAPE GIRARDEAU SUNNY     63  48  58 W5        30.09S
FARMINGTON     SUNNY     64  41  42 NW8       30.11S
POPLAR BLUFF   SUNNY     64  48  56 NW8       30.10F
WEST PLAINS    SUNNY     62  43  49 VRB5      30.14R

$$



USA.gov is the U.S. government's official web portal to all federal, state and local government web resources and services.